EW1175 Coquitlam CA current weather conditions

sailwx.info

Wind from 129

Air temperature 17.2° C
Dewpoint 11.5° C

Last reported at 2020-Jul-08 03:00 UTC.
Time now 2020-Jul-08 03:31 UTC

Location: N 49°15' W 122°50'.
View on Google Maps.

See reports from other nearby stations

  
Tides and Currents Weather Stations Pressure Air Temp Water Temp Dewpoint Dewpoint Depression Visibility Wind Speed Wind Dir Waves Ship Positions
date/time (UTC)wind fromknots sea level pressurealtimeterstation pressurevisibilityair tempwater tempwave heightnotes
2020-Jul-08 03:00 129 17.2
2020-Jul-08 02:45 129 17.2
2020-Jul-08 02:30 129 17.2
2020-Jul-08 02:15 129 17.8
2020-Jul-08 02:00 130 17.8
2020-Jul-08 01:46 125 18.3
2020-Jul-08 01:30 141 17.8
2020-Jul-08 01:16 149 18.3
2020-Jul-08 01:00 149 18.9
2020-Jul-08 00:45 143 18.9
2020-Jul-08 00:30 134 19.4
2020-Jul-08 00:15 322 19.4
2020-Jul-08 00:00 127 19.4
2020-Jul-07 23:45 141 20.0
2020-Jul-07 23:30 146 20.0
2020-Jul-07 23:15 132 20.6
2020-Jul-07 23:00 009 20.0
2020-Jul-07 22:45 082 19.4
2020-Jul-07 22:31 113 19.4
2020-Jul-07 22:16 153 18.3
2020-Jul-07 22:01 153 17.8
2020-Jul-07 21:31 253 0 gusting 2 17.8
2020-Jul-07 21:17 252 1 gusting 3 17.8
2020-Jul-07 21:01 323 17.2
2020-Jul-07 20:45 223 17.2
2020-Jul-07 20:31 327 16.7
2020-Jul-07 17:00 222 14.4
2020-Jul-07 16:45 179 13.9
2020-Jul-07 16:30 195 13.9
2020-Jul-07 16:15 270 13.3
2020-Jul-07 16:00 236 0 gusting 3 13.3
2020-Jul-07 13:15 205 11.1
2020-Jul-07 13:01 212 0 gusting 2 11.7
2020-Jul-07 12:47 228 11.7
2020-Jul-07 12:31 219 11.7
2020-Jul-07 12:16 246 11.7
2020-Jul-07 12:00 190 11.7
2020-Jul-07 11:45 200 11.1
2020-Jul-07 11:30 167 11.7
2020-Jul-07 11:15 217 11.7
2020-Jul-07 11:00 253 11.7
2020-Jul-07 10:45 236 12.2
2020-Jul-07 10:30 220 12.8
2020-Jul-07 10:15 236 13.3
2020-Jul-07 10:00 181 13.9
2020-Jul-07 09:45 180 13.9
2020-Jul-07 09:30 180 13.9
2020-Jul-07 09:15 180 13.9
2020-Jul-07 09:00 180 13.9
2020-Jul-07 08:45 180 13.9
2020-Jul-07 08:30 181 14.4
2020-Jul-07 08:16 224 14.4
2020-Jul-07 08:01 224 14.4
2020-Jul-07 07:46 224 14.4
2020-Jul-07 07:32 238 15.0
2020-Jul-07 07:17 233 15.0
2020-Jul-07 07:01 215 15.0
2020-Jul-07 06:46 239 15.0
2020-Jul-07 06:31 238 15.0
2020-Jul-07 06:01 257 15.0
2020-Jul-07 05:47 156 15.0
2020-Jul-07 05:31 131 14.4
2020-Jul-07 05:16 130 14.4
2020-Jul-07 05:01 129 15.0
2020-Jul-07 04:47 129 15.0
2020-Jul-07 04:31 129 15.6
2020-Jul-07 04:16 130 16.1
2020-Jul-07 04:01 129 16.7
2020-Jul-07 03:46 130 17.2
2020-Jul-07 03:32 130 18.3
2020-Jul-07 03:16 130 20.0
2020-Jul-07 03:01 129 21.1
2020-Jul-07 02:45 129 20.6
2020-Jul-07 02:31 139 20.6
2020-Jul-07 02:16 139 20.6
2020-Jul-07 02:01 139 21.7
2020-Jul-07 01:45 139 20.6
2020-Jul-07 01:30 134 20.6
2020-Jul-07 01:15 214 20.0
2020-Jul-07 01:01 074 20.0
2020-Jul-07 00:46 158 20.0
2020-Jul-07 00:31 165 20.0
2020-Jul-07 00:16 191 20.0
2020-Jul-07 00:00 211 21.1
2020-Jul-06 23:45 146 20.0
2020-Jul-06 23:30 087 20.0
2020-Jul-06 23:15 015 20.0
2020-Jul-06 23:01 129 20.0
2020-Jul-06 22:45 113 20.6
2020-Jul-06 22:30 302 21.1
2020-Jul-06 22:15 302 21.1
2020-Jul-06 22:00 335 22.2
2020-Jul-06 21:45 118 22.8
2020-Jul-06 21:30 293 22.2
2020-Jul-06 21:15 118 22.2
2020-Jul-06 21:00 134 22.2
2020-Jul-06 20:45 143 21.7
2020-Jul-06 20:30 326 22.2
2020-Jul-06 20:15 122 21.7
2020-Jul-06 20:00 121 20.6
2020-Jul-06 19:47 103 20.0
2020-Jul-06 19:31 160 20.0
2020-Jul-06 19:16 188 0 gusting 2 18.9
2020-Jul-06 19:01 158 18.3
2020-Jul-06 18:46 188 18.9
2020-Jul-06 18:31 160 18.9
2020-Jul-06 18:16 162 18.9
2020-Jul-06 18:02 353 0 gusting 3 18.9
2020-Jul-06 17:47 201 17.8
2020-Jul-06 17:31 152 17.8
2020-Jul-06 17:16 229 17.2
2020-Jul-06 17:01 194 17.2
2020-Jul-06 16:46 234 17.8
2020-Jul-06 16:31 170 17.2
2020-Jul-06 16:16 328 16.7
2020-Jul-06 16:00 352 16.1
2020-Jul-06 15:45 188 16.1
2020-Jul-06 15:31 240 16.1
2020-Jul-06 15:15 198 15.6
2020-Jul-06 15:00 193 15.0
2020-Jul-06 14:45 193 13.3
2020-Jul-06 14:30 193 12.8
2020-Jul-06 14:16 300 12.8
2020-Jul-06 14:00 232 12.8
2020-Jul-06 13:45 232 12.8
2020-Jul-06 13:30 233 12.2
2020-Jul-06 13:15
2020-Jul-06 13:00
2020-Jul-06 12:45
2020-Jul-06 12:16
2020-Jul-06 12:01
2020-Jul-06 11:46
2020-Jul-06 11:31
2020-Jul-06 11:16
2020-Jul-06 11:01
2020-Jul-06 10:45
2020-Jul-06 10:30 158 11.1
2020-Jul-06 10:15 158 11.7
2020-Jul-06 10:00 158 12.2
2020-Jul-06 09:45 170 11.7
2020-Jul-06 09:31 170 12.2
2020-Jul-06 09:16 170 12.2
2020-Jul-06 09:00 170 12.2
2020-Jul-06 08:45 170 12.8
2020-Jul-06 08:30 170 13.3
2020-Jul-06 08:15 228 13.3
2020-Jul-06 08:00 184 12.8
2020-Jul-06 07:45 102 11.7
2020-Jul-06 07:30 101 12.2
2020-Jul-06 07:15 101 12.2
2020-Jul-06 07:01 102 12.8
2020-Jul-06 06:47 101 12.8
2020-Jul-06 06:31 101 13.3
2020-Jul-06 06:17 102 13.3
2020-Jul-06 06:01 101 13.9
2020-Jul-06 05:47 101 14.4
2020-Jul-06 05:32 102 14.4
2020-Jul-06 05:16 101 15.0
2020-Jul-06 05:01 101 15.6
2020-Jul-06 04:46 098 16.1
2020-Jul-06 04:31 097 16.7
2020-Jul-06 04:16 098 17.2
2020-Jul-06 04:01 098 17.8
2020-Jul-06 03:46 097 18.9
2020-Jul-06 03:32 096 20.0
2020-Jul-06 03:16 095 21.7
2020-Jul-06 03:01 094 23.9